Regional Weather Roundup
Issued by NWS Midland/Odessa, TX

Skip options and go directly to product.
Home | Oldest Version | Previous Version | Current Version | All | Text Only | Save Text | Print | Product List | Glossary On

Skip product version selection by date and time.   
125
ASUS44 KMAF 251010
RWRMAF
MIDLAND AREA WEATHER ROUNDUP
NATIONAL WEATHER SERVICE MIDLAND TX
500 AM CDT SAT APR 25 2015

...IN SOUTHWEST TEXAS AND SOUTHEAST NEW MEXICO...

CITY           SKY/WX    TMP DP  RH WIND       PRES   REMARKS
ALPINE         CLEAR     43  33  68 SW10      30.04S WCI  37
ANDREWS        FAIR      59  29  31 W13       29.86S
ARTESIA        CLEAR     50  30  46 W12       29.90S
BIG SPRING     CLEAR     54  29  38 S7        29.85R
CARLSBAD       CLEAR     59  29  31 W16       29.87R
DRYDEN           N/A     59  53  80 W8        29.86R
FORT STOCKTON  CLEAR     55  31  39 SW12      29.91R
GUAD PASS      CLEAR     48  28  46 SW9       29.98S
HOBBS          CLEAR     50  28  43 W12       29.88S
MARFA          CLEAR     39  32  75 NE5       30.02S WCI  36
MIDLAND AIRPK  CLEAR     63  31  30 W14       29.85S
MIDLAND INTL   CLEAR     62  31  31 W17       29.85R
ODESSA         CLEAR     61  29  29 W14       29.87R
PECOS          CLEAR     53  28  38 SW8       29.89R
PRESIDIO       FAIR      56  29  34 N10       29.93S
SEMINOLE       CLEAR     48  31  50 SW8       29.87S
SNYDER         CLEAR     50  38  65 SW6       29.80R
WINK           CLEAR     55  27  34 W9        29.86S
$$
...OTHER STATIONS IN TEXAS...

CITY           SKY/WX    TMP DP  RH WIND       PRES   REMARKS
ABILENE        CLEAR     64  36  35 W9        29.77S
AMARILLO       CLEAR     54  28  36 W14       29.75R
AUSTIN         CLOUDY    72  72 100 S7        29.74R THUNDER FOG
BROWNSVILLE    CLOUDY    79  76  90 SE6       29.72S FOG
CORPUS CHRISTI CLOUDY    76  71  85 SW7       29.68S
DALLAS FTW     PTCLDY    58  58 100 SW9       29.68R
DEL RIO        CLOUDY    73  71  93 N3        29.79S FOG
EL PASO        CLEAR     56  29  35 SW6       29.94F
HOUSTON INT    CLOUDY    77  74  90 CALM      29.72F
LUBBOCK        CLEAR     52  34  50 W14       29.80S
SAN ANGELO     CLEAR     50  44  80 SW7       29.83R
SAN ANTONIO    TSTM      66  63  90 S14       29.82R VSB 1
WACO           CLOUDY    67  65  93 SW6       29.72S
WICHITA FALLS  NOT AVBL
$$
...OTHER LOCATIONS IN NEW MEXICO...

CITY           SKY/WX    TMP DP  RH WIND       PRES   REMARKS
ALAMAGORDO     CLEAR     50  28  43 SE8       29.94S
ALBUQUERQUE    PTCLDY    49  33  54 VRB6      29.97R
CANNON AFB     CLEAR     49  31  50 W14       29.84S
CLOVIS         CLEAR     48  28  46 W15       29.83S
HOLLOMAN AFB   CLEAR     51  30  45 SE5       29.92F
ROSWELL        CLEAR     54  31  41 W10       29.88R
RUIDOSO        CLEAR     41  27  56 N7        30.01S WCI  36
SANTA FE       PTCLDY    41  29  62 CALM      29.95R
TRUTH OR CONSE CLEAR     47  30  51 W6        29.95S
TUCUMCARI      CLEAR     54  31  41 W16       29.79R
$$

USA.gov is the U.S. government's official web portal to all federal, state and local government web resources and services.